Terminal Aerodrome Forecast
Issued by NWS Portland, OR

Home | Current Version | Previous Version | Text Only | Print | Product List | Glossary On
Versions: 1 2 3 4 5 6 7 8 9 10 11 12 13 14 15 16 17 18 19 20 21 22 23 24 25 26 27 28 29 30
000
FTUS46 KPQR 282333
TAFEUG
TAF
KEUG 282333Z 2900/2924 01009KT P6SM SKC
     FM290500 33005KT P6SM SCT250
     FM291000 VRB03KT P6SM MIFG SKC
     FM291800 36008KT P6SM SKC
     FM292100 35012KT P6SM FEW250=

USA.gov is the U.S. government's official web portal to all federal, state and local government web resources and services.